Regional Weather Roundup
Issued by NWS

Home | Current Version | Previous Version | Graphics & Text | Print | Product List | Glossary On
Versions: 1 2 3 4 5 6 7 8 9 10 11 12 13 14 15 16 17 18 19 20 21 22 23 24 25 26 27 28 29 30 31 32 33 34 35 36 37 38 39 40 41 42 43 44 45 46 47 48 49 50
000
ASUS43 KTOP 290208
RWRKS

WEATHER ROUNDUP FOR KANSAS
NATIONAL WEATHER SERVICE GOODLAND KS
900 PM CDT THU AUG 28 2014

NOTE:  "FAIR" INDICATES FEW OR NO CLOUDS BELOW 12,000 FEET WITH NO
SIGNIFICANT WEATHER AND/OR OBSTRUCTIONS TO VISIBILITY.

KSZ001>006-013>018-027>032-041>047-290300-
NORTHWEST KANSAS

CITY           SKY/WX    TMP DP  RH WIND       PRES   REMARKS
GOODLAND       MOCLDY    67  60  78 NW8       30.01R
HAYS           CLOUDY    75  64  69 SE10      29.87R
HILL CITY      MOCLDY    75  67  76 E3        29.88R
RUSSELL        CLOUDY    71  66  84 S10       29.84F
$$

KSZ061>065-074>080-084>089-290300-
SOUTHWEST KANSAS

CITY           SKY/WX    TMP DP  RH WIND       PRES   REMARKS
DODGE CITY     CLOUDY    76  61  59 SW8       29.92R THUNDER
ELKHART          N/A     75  52  44 NW7         N/A
GARDEN CITY    CLOUDY    70  64  81 S5        29.93R
GREAT BEND     CLOUDY    72  64  78 SE14G22   29.88S
LIBERAL        PTCLDY    73  55  53 E9        29.95R
PRATT          CLOUDY    72  63  73 S12       29.90R
$$

KSZ066>073-081>083-090>101-290300-
SOUTHEAST KANSAS

CITY           SKY/WX    TMP DP  RH WIND       PRES   REMARKS
CHANUTE        CLEAR     81  60  48 SE10      29.88S
COFFEYVILLE    CLEAR     81  61  50 SE7       29.87S
HUTCHINSON     CLOUDY    76  64  66 S22G30    29.86R
MEDICINE LODGE   N/A     69  66  90 S7        29.89R
NEWTON         CLOUDY    73  61  64 S8        29.91R
PARSONS        CLEAR     81  61  50 SE5       29.89S
WICHITA INTL   CLOUDY    75  66  73 SW16G26   29.89R
WICHITA JABRA  CLOUDY    75  63  66 S7        29.87R
WICHITA MCCONL CLOUDY    74  67  77 S18G25    29.91R
WINFIELD       LGT RAIN  75  70  84 W22G29    29.91R
$$

KSZ007>012-019>026-033>040-048>060-102>105-290300-
NORTHEAST KANSAS

CITY           SKY/WX    TMP DP  RH WIND       PRES   REMARKS
CONCORDIA      CLOUDY    74  69  85 SW9       29.85S
EMPORIA        CLOUDY    79  67  66 SW5       29.86R
LAWRENCE       PTCLDY    80  68  66 SE5       29.85R
MANHATTAN      CLOUDY    73  71  93 CALM      29.85R
MARYSVILLE     MOCLDY    73  70  88 CALM      29.85R
OLATHE IND     CLEAR     82  65  56 SE10      29.87R
OLATHE EXE     CLEAR     81  65  58 S10       29.86S
SALINA         CLOUDY    78  66  66 S12       29.84R
TOPEKA BILLARD MOCLDY    82  68  62 S3        29.84R
TOPEKA FORBES  MOCLDY    81  64  56 SE6       29.84S
$$


USA.gov is the U.S. government's official web portal to all federal, state and local government web resources and services.